• MPC Preparation (Info)

  • MPEC 2024-F94 : 2024 FV2

    The following Minor Planet Electronic Circular may be linked-to from your own Web pages, but must not otherwise be redistributed electronically.

    A form allowing access to any MPEC is at the bottom of this page.


    Read MPEC 2024-F93 Read MPEC 2024-F95


    M.P.E.C. 2024-F94                                Issued 2024 March 28, 13:27 UT
    
         The Minor Planet Electronic Circulars contain information on unusual
             minor planets, routine data on comets and natural satellites,
             and occasional editorial announcements.  They are published
        on behalf of Division F of the International Astronomical Union by the
              Minor Planet Center, Smithsonian Astrophysical Observatory,
                              Cambridge, MA 02138, U.S.A.
    			  
                 Prepared using the Tamkin Foundation Computer Network
    
                                  MPC@CFA.HARVARD.EDU
                URL https://www.minorplanetcenter.net/    ISSN 1523-6714
    
                                    2024 FV2                                 
    
    
    Observations:
         K24F02V* C2024 03 17.35333209 54 37.796-08 07 41.68         22.04wXEF094F51
         K24F02V  C2024 03 17.36539409 54 38.490-08 07 26.87         21.98wXEF094F51
         K24F02V  C2024 03 17.38957309 54 39.842-08 06 56.85         21.99wXEF094F51
         K24F02V KC2024 03 19.18730 09 56 43.84 -07 30 10.3                VEF094291
         K24F02V KC2024 03 19.19853 09 56 44.59 -07 29 56.8          21.2 RVEF094291
         K24F02V 1C2024 03 19.27686609 56 50.476-07 28 16.25         22.08GVEF094T12
         K24F02V 1C2024 03 19.28106609 56 50.733-07 28 11.25         21.75GVEF094T12
         K24F02V KC2024 03 28.22648 10 08 37.87 -04 34 37.4          22.7 RVEF094291
         K24F02V KC2024 03 28.24146 10 08 39.08 -04 34 21.6          22.5 RVEF094291
         K24F02V KC2024 03 28.25647 10 08 40.27 -04 34 04.8          22.0 RVEF094291
    
    Observer details:
    291 LPL/Spacewatch II.  Observer M. T. Read.  1.8-m f/2.7 reflector + CCD.
    F51 Pan-STARRS 1, Haleakala.  Observers J. Herman, T. Lowe, P. Minguez, A.
        Schultz, I. Smith.  Measurers K. Chambers, T. de Boer, J. Fairlamb, H.
        Gao, M. Huber, C.-C. Lin, E. Magnier, Y. Ramanjooloo, R. Wainscoat, R.
        Weryk.  1.8-m Ritchey-Chretien + CCD.
    T12 University of Hawaii 88-inch telescope, Maunakea.  Observer J. Fairlamb.
        Measurers R. Weryk, J. Fairlamb, Y. Ramanjooloo, R. Wainscoat.  2.24-m
        f/10.1 reflector + CCD.
    
    Orbital elements:
    2024 FV2                                                 Earth MOID = 0.3105 AU
    Epoch 2024 Mar. 31.0 TT = JDT 2460400.5                 Bell                    
    M  18.87845              (2000.0)            P               Q                  
    n   0.39269488     Peri.  290.66772     -0.80818237     -0.58453706             
    a   1.8468540      Node   213.67830     +0.57697434     -0.76141487             
    e   0.3129788      Incl.    7.44127     +0.11807565     -0.28029239             
    P   2.51           H   22.83          G   0.15           U   8                  
    Residuals in seconds of arc
    240317 F51  0.1-  0.0     240319 291  1.2+  0.1+    240328 291  0.1+  0.3-
    240317 F51  0.1+  0.1-    240319 T12  0.1-  0.0     240328 291  0.2+  0.1+
    240317 F51  0.1-  0.0     240319 T12  0.1-  0.1-
    240319 291  0.3+  0.2+    240328 291  0.3-  0.2+
    
    Ephemeris:
    2024 FV2                 a,e,i = 1.85, 0.31, 7                   q = 1.2688
    Date    TT    R. A. (2000) Decl.     Delta      r    Elong.  Phase     V
    2024 02 27    09 39 42.0 -14 14 19   0.3113  1.2753   153.0    20.6    21.8
    ...
    2024 03 13    09 50 08.0 -09 37 20   0.3307  1.2943   151.5    21.5    22.0
    ...
    2024 03 21    09 58 54.3 -06 53 13   0.3517  1.3092   148.6    23.4    22.2
    ...
    2024 03 27    10 06 52.4 -04 56 54   0.3723  1.3223   145.8    25.1    22.4
    2024 03 28    10 08 18.2 -04 38 32   0.3762  1.3247   145.3    25.4    22.5
    2024 03 29    10 09 45.7 -04 20 29   0.3801  1.3270   144.7    25.7    22.5
    ...
    2024 04 04    10 19 02.1 -02 40 17   0.4064  1.3423   141.5    27.6    22.7
    ...
    2024 04 12    10 32 37.0 -00 51 17   0.4478  1.3648   137.1    30.0    23.1
    ...
    2024 04 27    11 00 38.5 +01 10 51   0.5441  1.4127   128.8    33.7    23.7
    
    M. P. C. Staff               (C) Copyright 2024 MPC           M.P.E.C. 2024-F94
    


    Read MPEC 2024-F93 Read MPEC 2024-F95


    MPEC number:

    Enter an MPEC number in one of the following forms:

    • 1997-B01 (the full form)
    • J97B01 (the packed version of the full form)
    • B01 (the abbreviated form)